Location: Dörflingen
(47.7079°N, 8.7193°E)
Time: 14:43:14
(UTC+00:00)

Daily predictions for brighter satellites

Satellite Brightness Start Highest point End
(mag) Time Altitude Azimuth Time Altitude Azimuth Time Altitude Azimuth
Cosmos 1697 Rocket 2.9 19:56:21 10° NNW 20:01:57 64° ENE 20:07:31 10° SE
Cosmos 1980 Rocket 3.1 19:57:08 10° NNW 20:02:25 37° NE 20:07:39 10° ESE
SL-16 R/B 4.4 20:00:49 10° N 20:04:12 16° NE 20:07:35 10° ENE
H-2A R/B 4.4 20:01:04 10° SSW 20:04:17 25° W 20:07:32 10° NW
Cosmos 2369 4.3 20:05:17 10° NNW 20:10:49 46° NE 20:16:19 10° SE
Cosmos 2344 4.4 20:07:19 10° NW 20:15:59 71° NE 20:28:03 10° SE
Resurs 01 Rocket 2.4 20:12:42 10° S 20:17:01 52° W 20:21:24 10° NNW
COSMOS 2406 3.6 20:15:03 10° S 20:20:27 44° ESE 20:25:53 10° NE
Cosmos 2184 Rocket 4.0 20:17:42 10° N 20:23:56 84° E 20:30:11 10° S
H-2A R/B 3.1 20:21:36 10° N 20:25:56 53° WNW 20:30:18 10° SW
Cosmos 1833 Rocket 2.7 20:20:25 10° SSW 20:26:00 79° ESE 20:31:39 10° NNE
Cosmos 1867 4.0 20:24:07 10° NNW 20:29:32 57° NE 20:34:38 11° SE
Cosmos 1536 Rocket 3.9 20:27:27 10° SSW 20:31:46 69° W 20:36:09 10° N
Cosmos 1703 3.3 20:29:03 10° S 20:32:54 83° W 20:36:47 10° N
CARTOSAT-1 3.8 20:29:58 10° S 20:34:15 69° WSW 20:38:34 10° NNW
Cosmos 1825 4.4 20:34:06 10° E 20:34:56 11° E 20:35:44 10° ENE
Cosmos 1606 Rocket 3.7 20:31:38 10° N 20:35:56 60° ENE 20:39:49 12° SSE
USA 245 3.0 20:32:13 10° SSE 20:36:07 81° WSW 20:39:16 10° NNW
Ariane Rocket 3.8 20:33:24 10° S 20:38:20 51° W 20:43:20 10° NNW
Cosmos 2322 Rocket 4.2 20:34:38 10° N 20:38:37 19° NE 20:42:36 10° E
CZ-4B R/B 3.0 20:43:00 10° N 20:45:36 30° WNW 20:48:11 10° SW
GP-B 4.5 20:42:45 10° NNE 20:46:22 24° E 20:49:01 14° SE
USA 234 4.5 20:40:40 10° ENE 20:46:43 41° N 20:52:47 10° WNW
ARIANE 5 R/B 3.2 20:44:14 14° SE 20:47:42 44° ENE 20:51:54 10° N
Terra 2.0 20:44:04 14° SSE 20:48:06 61° ENE 20:52:49 10° N
SPOT 3 Rocket 4.0 20:44:46 10° S 20:49:55 62° WSW 20:55:07 10° NNW
SPOT 5 2.6 20:46:56 13° SSE 20:50:52 89° WSW 20:55:13 10° NNW
Cosmos 2278 4.2 20:47:13 10° NNW 20:52:48 51° ENE 20:57:25 15° SE
RESURS DK-1 4.2 20:49:25 10° NW 20:52:49 25° WSW 20:56:12 10° SSW
USA 276 2.4 20:50:54 10° WNW 20:53:54 61° N 20:56:54 10° E
Cosmos 2341 Rocket 4.4 20:48:11 10° N 20:54:21 52° ENE 20:59:17 16° SSE
FALCON 9 DEB 3.3 20:52:03 10° WNW 20:55:18 62° NNE 20:58:00 14° ESE
Cosmos 1726 Rocket 3.5 20:53:31 10° N 20:57:52 78° E 21:01:15 16° SSE
Meteor 1-11 4.4 20:58:42 13° S 21:03:30 54° E 21:08:55 10° NNE
Cosmos 2082 Rocket 2.2 20:58:32 10° SSW 21:04:11 68° ESE 21:09:51 10° NNE
Helios 1A Rocket 3.2 21:04:55 15° S 21:08:15 63° WSW 21:12:21 10° NNW
ASTEX 1 4.1 21:03:53 10° NNE 21:08:36 39° E 21:11:39 19° SSE
Spot 2 Rocket 3.8 21:04:02 12° S 21:08:38 63° WSW 21:13:44 10° NNW
Cosmos 1328 3.9 21:05:12 10° SSW 21:09:12 76° WNW 21:13:12 10° N
Cosmos 2084 Rocket 4.2 21:07:44 10° NW 21:11:22 37° WSW 21:13:53 18° S
Cosmos 2360 Rocket 4.1 21:08:59 10° N 21:13:18 22° NE 21:17:36 10° E
Nadezhda 1 Rocket 4.2 21:08:31 10° SSW 21:14:33 69° W 21:20:38 10° N
Cosmos 1932 4.5 21:11:52 10° SSW 21:17:57 62° ESE 21:24:12 10° NE
Cosmos 2181 Rocket 4.3 21:17:08 18° SSE 21:21:32 52° E 21:27:34 10° NNE
X-37B 2.7 21:24:34 10° WSW 21:25:27 12° SW 21:25:27 12° SW
ERS-1 Rocket 3.6 21:22:06 14° S 21:26:17 50° W 21:31:12 10° NNW
Cosmos 1892 2.6 21:26:26 23° S 21:28:40 76° E 21:32:28 10° NNE
Cosmos 1302 Rocket 4.4 21:30:02 10° SSW 21:35:12 64° WNW 21:40:22 10° NNE
Cosmos 1892 Rocket 4.2 21:38:01 12° SSW 21:41:59 53° WNW 21:46:17 10° N
Cosmos 968 Rocket 4.3 21:38:08 10° NW 21:43:04 43° WSW 21:46:30 19° SSW
Cosmos 1503 Rocket 4.3 21:39:16 10° NNW 21:44:30 57° ENE 21:47:32 24° SE
Cosmos 1697 Rocket 4.5 21:41:11 10° NW 21:45:26 22° WSW 21:49:39 10° SSW
Cosmos 1980 Rocket 3.0 21:41:09 10° NW 21:46:29 42° WSW 21:50:07 19° SSW
ALOS 2 4.3 21:44:13 15° ESE 21:46:35 23° ENE 21:50:03 10° NNE
Cosmos 2219 Rocket 4.3 21:44:58 10° N 21:49:00 19° NE 21:53:02 10° E
SL-16 R/B 2.4 21:43:51 10° NNW 21:49:31 63° ENE 21:52:57 24° SE
Cosmos 2058 Rocket 3.7 21:46:21 10° NNW 21:50:39 51° W 21:53:20 22° SSW
Cosmos 1408 3.4 21:48:45 18° SW 21:51:02 43° WNW 21:54:22 10° N
Cosmos 1626 Rocket 3.5 21:50:06 30° S 21:52:09 69° E 21:56:30 10° NNE
SL-8 Rocket 4.1 21:47:39 10° NNW 21:53:53 73° W 21:58:01 22° S
USA 267 3.6 21:48:01 10° ENE 21:54:12 43° SE 21:59:31 14° SSW
ATLAS 5 CENTAUR R/B 1.2 21:50:51 11° SW 21:54:23 86° NW 21:58:37 10° NE
SJ 16-02 1.9 21:57:16 10° N 22:01:35 48° ENE 22:03:35 28° ESE
In-Cosmos 22 Rocket 4.3 21:59:05 19° SSW 22:03:10 75° WNW 22:08:36 10° N
SL-4 R/B 2.9 22:04:44 26° E 22:04:44 26° E 22:06:43 10° ENE
Cosmos 1825 2.4 22:08:00 30° SSW 22:09:41 63° W 22:13:25 10° N
Cosmos 2366 rocket 4.3 22:07:59 10° NNW 22:14:14 62° W 22:18:15 23° SSW
Cosmos 1869 3.9 22:13:09 10° NNW 22:16:57 49° W 22:18:25 31° SSW
Cosmos 2218 Rocket 4.5 22:14:26 10° NNW 22:20:40 56° W 22:24:43 22° SSW
Cosmos 2322 Rocket 2.2 22:17:52 10° NNW 22:23:35 81° ENE 22:26:28 31° SSE
GP-B 4.3 22:19:40 10° NNW 22:23:46 37° W 22:26:27 19° SW
Terra 4.0 22:23:04 10° SW 22:26:16 18° W 22:29:29 10° NW
USA 234 3.5 22:22:42 10° ESE 22:29:11 68° NNE 22:35:43 10° NW
USA 276 3.2 22:26:44 10° W 22:28:42 31° WSW 22:28:42 31° WSW
Cosmos 1934 Rocket 4.5 22:25:39 10° N 22:31:34 50° ENE 22:34:46 26° SE
Meteor 2-20 Rocket 4.5 22:33:21 31° SSE 22:36:18 68° E 22:42:22 10° NNE
BREEZE-M DEB (TANK) 3.8 22:33:48 10° WNW 22:37:09 88° NNE 22:50:33 10° ESE
Cosmos 1633 3.0 22:39:00 39° SW 22:39:55 51° WNW 22:43:19 10° N
Cosmos 1758 Rocket 3.7 22:42:25 36° SSW 22:44:06 69° WNW 22:48:30 10° N
Cosmos 2333 Rocket 2.9 22:38:52 10° NNW 22:44:30 51° NE 22:48:06 22° ESE
Cosmos 1238 4.1 22:44:13 72° SSE 22:44:30 83° E 22:48:07 10° N
Cosmos 2082 Rocket 4.2 22:44:03 10° WSW 22:48:47 26° NW 22:53:31 10° N
COSMOS 2487 4.3 22:52:54 16° E 22:52:54 16° E 22:54:17 10° NE
Cosmos 1606 2.9 22:49:44 10° NNW 22:53:34 63° W 22:54:21 49° SSW
Cosmos-2242 3.5 22:49:49 10° NNW 22:53:55 48° W 22:55:10 36° SW
Cosmos 1812 Rocket 4.5 22:50:28 10° NNW 22:54:37 39° W 22:56:09 29° SW
ADEOS Rocket 3.5 22:53:13 30° SSE 22:57:25 85° WSW 23:05:15 10° NNW
Cosmos 2360 Rocket 2.1 22:52:20 10° NNW 22:58:04 85° WSW 23:00:32 36° SSE
ISS -1.7 23:00:49 18° E 23:00:49 18° E 23:01:56 10° ENE
Cosmos 1340 Rocket 2.8 22:58:42 54° SSE 22:59:23 67° E 23:03:21 10° NNE
Gbstr 26 Del rocket 3.0 22:59:00 33° SW 23:00:53 70° SSE 23:05:56 10° ENE
Cosmos 375 4.4 23:05:37 45° SSW 23:06:50 77° SE 23:11:49 10° NE
Cosmos 2333 4.3 23:01:52 10° NNW 23:07:41 74° ENE 23:10:38 30° SE
BREEZE-M DEB (TANK) 3.3 23:12:24 39° ESE 23:12:24 39° ESE 23:16:24 10° ENE
SL-27 R/B 3.2 23:13:18 36° E 23:13:18 36° E 23:16:01 10° NE
Meteor 2-11 Rocket 4.4 23:08:27 10° N 23:14:37 86° E 23:17:23 35° S
NOSS 3-2 (A) 4.3 23:13:40 26° SE 23:14:46 28° ESE 23:19:52 10° ENE
Cosmos 44 3.0 23:14:09 44° SSW 23:15:35 78° SE 23:20:02 10° NE
Cosmos 972 Rocket 4.1 23:11:07 10° NNW 23:16:23 80° WSW 23:18:41 37° S
Cosmos 1833 4.1 23:14:26 36° SSW 23:16:49 79° ESE 23:22:26 10° NNE
Cosmos 1782 4.0 23:17:29 10° N 23:21:08 34° ENE 23:22:20 28° ESE
ERS-2 1.9 23:18:59 10° NNE 23:22:35 78° ESE 23:22:56 68° SSE
ALOS 2 3.3 23:21:37 35° SW 23:22:41 42° W 23:26:53 10° NNW
CENTAUR R/B 3.3 23:22:31 28° SE 23:24:08 32° ESE 23:30:01 10° NE
Cosmos 2237 Rocket 4.2 23:19:31 10° N 23:24:09 25° NE 23:28:44 10° E
Cosmos 1605 Rocket 4.1 23:18:52 10° N 23:25:19 78° E 23:28:27 32° SSE
COSMOS 2428 3.2 23:25:17 10° NNW 23:30:57 58° ENE 23:34:37 22° SE
H-2A R/B 4.4 23:27:11 10° N 23:31:10 41° WNW 23:32:48 28° WSW
Cosmos 2297 Rocket 4.2 23:29:19 12° ESE 23:31:17 14° E 23:34:03 10° ENE
Cosmos 2058 3.9 23:29:58 30° WSW 23:31:22 40° WNW 23:35:20 10° N
Cosmos 2151 3.8 23:31:03 33° SE 23:32:04 38° E 23:36:05 10° NNE
SL-16 R/B 3.6 23:28:47 10° NW 23:33:08 23° WSW 23:34:48 20° SW
Cosmos 2219 Rocket 2.2 23:28:08 10° NNW 23:33:52 83° ENE 23:36:40 31° SSE
Cosmos 1953 Rocket 3.9 23:33:03 38° SW 23:34:27 56° WNW 23:38:49 10° N
USA 267 3.5 23:30:58 10° NE 23:37:28 72° NNW 23:43:59 10° WSW
ATLAS 5 CENTAUR R/B 4.1 23:36:45 10° WNW 23:39:39 19° NNW 23:42:51 10° NNE
SJ 16-02 3.1 23:36:36 10° NW 23:39:46 19° W 23:40:31 19° WSW
SL-4 R/B 2.1 23:40:05 17° W 23:42:42 60° NNW 23:46:25 10° ENE
Cosmos 2322 3.6 23:37:18 10° NNW 23:43:02 89° ENE 23:45:45 32° SSE
Cosmos 1898 Rocket 3.8 23:39:11 10° NNW 23:44:19 63° ENE 23:47:02 28° SE
Cosmos 1937 Rocket 4.1 23:44:21 10° NNW 23:49:31 52° ENE 23:52:46 21° SE
Cosmos 2221 3.0 23:47:01 10° NNW 23:51:14 49° W 23:52:14 40° SW
COSMOS 2455 4.0 23:45:56 10° NNW 23:51:38 42° NE 23:57:19 10° ESE
PSLV R/B 3.8 23:49:12 10° N 23:53:57 72° WNW 23:55:36 40° SSW
